Weather in Qiemo

China     38°08′15″N   85°28′52″E
temp.,
°C
wind,
m/s
gust,
m/s
humid.,
%
clouds,
%
prec.,
mm/h
press.,
hPa
HPBL,
m
5 december, sun
sun523:00−3e33425 0.0 103213
02:00−5e33470 0.0 103211
05:00−6se22525 0.0 103210
08:00−7se1155100 0.0 103110
11:00−2e23394 0.0 1031120
14:00+2ne22285 0.0 1027557
17:00+3ne2226100 0.0 1025769
20:00−1e2235100 0.0 102610
6 december, mon
mon623:00−1se2235100 0.0 102710
02:00−1ssw1135100 0.0 102610
05:00−2w2237100 0.0 102610
08:00−2sw3337100 0.0 102610
11:00+1sw3330100 0.0 1027132
14:00+5w3423100 0.0 1024668
17:00+5wnw2221100 0.0 1023888
20:00+2n2227100 0.0 102410
7 december, tue
tue723:000e1131100 0.0 102510
02:00+1ne0029100 0.0 102610
05:000wsw1130100 0.0 102710
08:000wsw2231100 0.0 102710
11:00+2w222650 0.0 102972
14:00+6wnw12195 0.0 1026547
17:00+8nne21160 0.0 1023722
20:00+3ene44230 0.0 102615
8 december, wed
wed823:00+1e44280 0.0 102717
02:00−1ene44330 0.0 102817
05:00−2e33384 0.0 102914
08:00−4e334370 0.0 102910
11:00−1ne113577 0.0 103076
14:00+3ene2225100 0.0 1027438
17:00+5nne11218 0.0 1025670
20:00+1se2228100 0.0 102710
9 december, thu
thu923:00+1ssw3327100 0.0 102810
02:000sw4429100 0.0 103017
05:00+1sw4429100 0.0 102932
08:00+1wsw3331100 0.0 102911
11:00+3wsw2327100 0.0 103099
14:00+7wsw4518100 0.0 1027573
17:00+8wsw5616100 0.0 1026887
20:00+4sw4423100 0.0 102921